Find Starlink 4800

NORAD ID: 53854 Int'l Des: 2022-114 Owner: SPXS Country: US Constellation: starlink operational
LEOCIRCULAR

現在のビュー

3D地球を読み込み中...

About Starlink 4800

Starlink 4800 (NORAD 53854) is a starlink constellation satellite (v1.5) launched Sep 19, 2022 by SPXS of US. It operates in LEO, CIRCULAR orbit with a mass of 305.00 kg.

Starlink 4800について

説明を読み込み中...

次回通過

Passes for default location (London). Set your location on the main map for personalized predictions.

高度履歴

Loading altitude history...

軌道要素

1 53854U 22114AN 26195.58335648 .00077407 00000-0 42023-2 0 9998
2 53854 53.1600 74.3684 0002941 108.5339 347.0231 15.13857499 5804
Epoch: Jul 14, 2026 • Age: 8 hours

現在のステータス

高度 527.3 km
遠地点 / 近地点 N/A
速度 7.61 km/s
衛星直下点 43.02°N, 142.2°W
打ち上げ日 Sep 19, 2022
運用期間 3.8 years
タイプ internet

技術仕様

分類 Payload
質量 305.00 kg
乾燥質量 290.00 kg
総質量 305.00 kg
長さ 0.20 m
直径 2.80 m
スパン 9.00 m
形状 Box + pan
製造者 SPXS
バスタイプ Starlink
フェーズステータス In Orbit
所有者/国 SPXS/US

Most Searched